This is the latest recevied weather packets stored in our database for station/object KD4MBW. If no packets are shown the sender has not sent any weather packets the latest 10 day(s).
| Time | Temp. | Humidity | Pressure | Rain* | Wind** | Luminosity | Snow |
|---|---|---|---|---|---|---|---|
| 1778175852 | 26.67° C | 92% | 1015.1 hPa | 0 mm | - | 262 W/m² | - |
| 1778175550 | 26.67° C | 91% | 1015 hPa | 0 mm | - | 194 W/m² | - |
| 1778175246 | 26.67° C | 91% | 1015.1 hPa | 0 mm | - | 210 W/m² | - |
| 1778174943 | 26.67° C | 91% | 1015.1 hPa | 0 mm | - | 271 W/m² | - |
| 1778174640 | 27.22° C | 90% | 1015.3 hPa | 0 mm | - | 293 W/m² | - |
| 1778174335 | 26.67° C | 90% | 1015.3 hPa | 0 mm | - | 143 W/m² | - |
| 1778174033 | 27.22° C | 90% | 1015.4 hPa | 0 mm | - | 457 W/m² | - |
| 1778173730 | 26.67° C | 90% | 1015.5 hPa | 0 mm | - | 385 W/m² | - |
| 1778173426 | 26.67° C | 91% | 1015.4 hPa | 0 mm | - | 325 W/m² | - |
| 1778173122 | 26.11° C | 93% | 1015.8 hPa | 0 mm | - | 289 W/m² | - |
| 1778172818 | 26.11° C | 93% | 1015.8 hPa | 0 mm | - | 137 W/m² | - |
| 1778172514 | 26.11° C | 92% | 1016 hPa | 0 mm | - | 147 W/m² | - |
| 1778172212 | 26.11° C | 93% | 1015.9 hPa | 0 mm | - | 85 W/m² | - |
| 1778171909 | 26.11° C | 93% | 1015.8 hPa | 0 mm | - | 43 W/m² | - |
| 1778171606 | 26.11° C | 92% | 1016 hPa | 0 mm | - | 65 W/m² | - |
| 1778171302 | 26.11° C | 92% | 1016 hPa | 0 mm | - | 128 W/m² | - |
| 1778170998 | 26.11° C | 92% | 1015.9 hPa | 0 mm | - | 82 W/m² | - |
| 1778170695 | 26.11° C | 92% | 1015.7 hPa | 0 mm | - | 103 W/m² | - |
| 1778170392 | 26.11° C | 92% | 1016.1 hPa | 0 mm | - | 59 W/m² | - |
| 1778170088 | 26.11° C | 92% | 1015.9 hPa | 0 mm | - | 124 W/m² | - |
| 1778169784 | 26.11° C | 91% | 1015.7 hPa | 0 mm | - | 101 W/m² | - |
| 1778169480 | 26.67° C | 91% | 1015.9 hPa | 0 mm | - | 158 W/m² | - |
| 1778169176 | 26.67° C | 90% | 1015.7 hPa | 0 mm | - | 143 W/m² | - |
| 1778168873 | 26.67° C | 90% | 1015.8 hPa | 0 mm | - | 340 W/m² | - |
| 1778168571 | 26.67° C | 90% | 1015.6 hPa | 0 mm | - | 148 W/m² | - |
* Rain latest hour (hover to see other rain measurements)
** Current wind speed in m/s (hover to see current wind gust speed)